Hourly Weather Rudnica

Today, 16 June, Wednesday

Time Temperature Precipitation Wind Pressure Humidity
00:00 +14°C° 0 mm 2 mps 738 mmHg 89%
01:00 +14°C° 0 mm 2 mps 738 mmHg 92%
02:00 +14°C° 0 mm 2 mps 738 mmHg 94%
03:00 +14°C° 0.1 mm 2 mps 738 mmHg 94%
04:00 +15°C° 0.1 mm 2 mps 738 mmHg 93%
05:00 +15°C° 0.1 mm 2 mps 739 mmHg 92%
06:00 +16°C° 0 mm 2 mps 739 mmHg 80%
07:00 +18°C° 0 mm 3 mps 739 mmHg 67%
08:00 +19°C° 0 mm 3 mps 740 mmHg 54%
09:00 +20°C° 0 mm 3 mps 740 mmHg 49%
10:00 +21°C° 0 mm 3 mps 740 mmHg 44%
11:00 +22°C° 0 mm 3 mps 740 mmHg 39%
12:00 +22°C° 0 mm 3 mps 741 mmHg 37%
13:00 +24°C° 0 mm 3 mps 741 mmHg 36%
14:00 +24°C° 0 mm 3 mps 741 mmHg 34%
15:00 +24°C° 0 mm 3 mps 741 mmHg 37%
16:00 +24°C° 0 mm 3 mps 741 mmHg 40%
17:00 +22°C° 0 mm 3 mps 741 mmHg 43%
18:00 +20°C° 0 mm 2 mps 742 mmHg 51%
19:00 +18°C° 0 mm 2 mps 742 mmHg 59%
20:00 +16°C° 0 mm 2 mps 742 mmHg 67%
21:00 +15°C° 0 mm 2 mps 743 mmHg 69%
22:00 +14°C° 0 mm 2 mps 743 mmHg 70%
23:00 +13°C° 0 mm 2 mps 744 mmHg 72%

Tomorrow, 17 June, Thursday

Time Temperature Precipitation Wind Pressure Humidity
00:00 +12°C° 0 mm 2 mps 744 mmHg 74%
01:00 +12°C° 0 mm 2 mps 745 mmHg 75%
02:00 +10°C° 0 mm 2 mps 745 mmHg 77%
03:00 +12°C° 0 mm 1 mps 745 mmHg 75%
04:00 +13°C° 0 mm 1 mps 746 mmHg 73%
05:00 +14°C° 0 mm 1 mps 746 mmHg 71%
06:00 +15°C° 0 mm 0 mps 746 mmHg 63%
07:00 +17°C° 0 mm 0 mps 747 mmHg 55%
08:00 +19°C° 0 mm 0 mps 747 mmHg 48%
09:00 +20°C° 0 mm 0 mps 747 mmHg 45%
10:00 +21°C° 0 mm 0 mps 747 mmHg 41%
11:00 +23°C° 0 mm 0 mps 747 mmHg 38%
12:00 +25°C° 0 mm 1 mps 747 mmHg 38%
13:00 +25°C° 0 mm 1 mps 747 mmHg 37%
14:00 +26°C° 0 mm 1 mps 747 mmHg 36%
15:00 +26°C° 0 mm 1 mps 747 mmHg 38%
16:00 +25°C° 0 mm 1 mps 747 mmHg 40%
17:00 +25°C° 0 mm 1 mps 747 mmHg 42%
18:00 +23°C° 0 mm 1 mps 747 mmHg 52%
19:00 +21°C° 0 mm 1 mps 747 mmHg 62%
20:00 +19°C° 0 mm 1 mps 748 mmHg 71%
21:00 +18°C° 0 mm 1 mps 748 mmHg 75%
22:00 +16°C° 0 mm 1 mps 748 mmHg 78%
23:00 +15°C° 0 mm 1 mps 748 mmHg 81%

Day after tomorrow, 18 June, Friday

Time Temperature Precipitation Wind Pressure Humidity
00:00 +14°C° 0 mm 1 mps 748 mmHg 82%
01:00 +14°C° 0 mm 1 mps 748 mmHg 83%
02:00 +14°C° 0 mm 1 mps 749 mmHg 84%
03:00 +14°C° 0 mm 1 mps 749 mmHg 82%
04:00 +15°C° 0 mm 1 mps 749 mmHg 81%
05:00 +16°C° 0 mm 1 mps 749 mmHg 79%
06:00 +19°C° 0 mm 1 mps 749 mmHg 71%
07:00 +20°C° 0 mm 2 mps 749 mmHg 64%
08:00 +23°C° 0 mm 2 mps 749 mmHg 56%
09:00 +24°C° 0 mm 2 mps 749 mmHg 52%
10:00 +25°C° 0 mm 2 mps 749 mmHg 47%
11:00 +27°C° 0 mm 2 mps 749 mmHg 43%
12:00 +27°C° 0 mm 3 mps 749 mmHg 42%
13:00 +27°C° 0 mm 3 mps 749 mmHg 42%
14:00 +28°C° 0 mm 3 mps 749 mmHg 42%
15:00 +27°C° 0 mm 3 mps 748 mmHg 45%
16:00 +27°C° 0 mm 3 mps 748 mmHg 49%
17:00 +27°C° 0 mm 3 mps 748 mmHg 53%
18:00 +25°C° 0 mm 3 mps 748 mmHg 62%
19:00 +23°C° 0 mm 2 mps 748 mmHg 71%
20:00 +20°C° 0 mm 2 mps 748 mmHg 80%
21:00 +19°C° 0 mm 2 mps 748 mmHg 81%
22:00 +18°C° 0 mm 2 mps 748 mmHg 82%
23:00 +17°C° 0 mm 2 mps 748 mmHg 83%

19 June, Saturday

Time Temperature Precipitation Wind Pressure Humidity
00:00 +16°C° 0 mm 2 mps 749 mmHg 86%
01:00 +16°C° 0 mm 2 mps 749 mmHg 88%
02:00 +15°C° 0 mm 2 mps 749 mmHg 91%
03:00 +16°C° 0 mm 2 mps 749 mmHg 88%
04:00 +16°C° 0 mm 2 mps 749 mmHg 86%
05:00 +17°C° 0 mm 2 mps 749 mmHg 84%
06:00 +19°C° 0 mm 2 mps 749 mmHg 77%
07:00 +21°C° 0 mm 2 mps 749 mmHg 69%
08:00 +24°C° 0 mm 2 mps 749 mmHg 61%
09:00 +25°C° 0 mm 2 mps 749 mmHg 57%
10:00 +26°C° 0 mm 3 mps 749 mmHg 53%
11:00 +27°C° 0 mm 3 mps 749 mmHg 49%
12:00 +28°C° 0 mm 3 mps 749 mmHg 47%
13:00 +28°C° 0 mm 3 mps 748 mmHg 46%
14:00 +29°C° 0 mm 3 mps 748 mmHg 45%
15:00 +28°C° 0 mm 3 mps 748 mmHg 48%
16:00 +28°C° 0 mm 3 mps 748 mmHg 51%
17:00 +28°C° 0 mm 3 mps 748 mmHg 53%
18:00 +26°C° 0 mm 3 mps 747 mmHg 62%
19:00 +24°C° 0 mm 2 mps 747 mmHg 71%
20:00 +21°C° 0 mm 2 mps 747 mmHg 80%
21:00 +20°C° 0 mm 2 mps 748 mmHg 81%
22:00 +19°C° 0 mm 2 mps 748 mmHg 82%
23:00 +17°C° 0 mm 2 mps 748 mmHg 83%

20 June, Sunday

Time Temperature Precipitation Wind Pressure Humidity
00:00 +17°C° 0 mm 2 mps 748 mmHg 85%
01:00 +16°C° 0 mm 2 mps 748 mmHg 87%
02:00 +16°C° 0 mm 2 mps 748 mmHg 90%
03:00 +16°C° 0 mm 1 mps 748 mmHg 88%
04:00 +18°C° 0 mm 1 mps 748 mmHg 85%
05:00 +19°C° 0 mm 1 mps 748 mmHg 83%
06:00 +20°C° 0 mm 1 mps 748 mmHg 75%
07:00 +21°C° 0 mm 2 mps 748 mmHg 67%
08:00 +24°C° 0 mm 2 mps 748 mmHg 59%
09:00 +25°C° 0 mm 2 mps 748 mmHg 55%
10:00 +26°C° 0 mm 2 mps 748 mmHg 51%
11:00 +28°C° 0 mm 3 mps 748 mmHg 47%
12:00 +28°C° 0 mm 3 mps 747 mmHg 46%
13:00 +28°C° 0 mm 3 mps 747 mmHg 45%
14:00 +29°C° 0 mm 3 mps 747 mmHg 43%
15:00 +28°C° 0 mm 3 mps 747 mmHg 47%
16:00 +28°C° 0 mm 3 mps 746 mmHg 50%
17:00 +28°C° 0 mm 3 mps 746 mmHg 53%
18:00 +26°C° 0 mm 3 mps 746 mmHg 62%
19:00 +24°C° 0 mm 2 mps 746 mmHg 71%
20:00 +21°C° 0 mm 2 mps 746 mmHg 81%
21:00 +20°C° 0 mm 2 mps 746 mmHg 82%
22:00 +19°C° 0 mm 2 mps 746 mmHg 83%
23:00 +18°C° 0 mm 2 mps 746 mmHg 84%

21 June, Monday

Time Temperature Precipitation Wind Pressure Humidity
00:00 +17°C° 0 mm 2 mps 746 mmHg 85%
01:00 +16°C° 0 mm 1 mps 746 mmHg 86%
02:00 +16°C° 0 mm 1 mps 746 mmHg 88%
03:00 +18°C° 0 mm 1 mps 746 mmHg 86%
04:00 +18°C° 0 mm 1 mps 746 mmHg 84%
05:00 +19°C° 0 mm 1 mps 746 mmHg 83%
06:00 +21°C° 0 mm 1 mps 746 mmHg 75%
07:00 +23°C° 0 mm 1 mps 746 mmHg 68%
08:00 +25°C° 0 mm 2 mps 746 mmHg 60%
09:00 +26°C° 0 mm 2 mps 746 mmHg 56%
10:00 +27°C° 0 mm 2 mps 746 mmHg 52%
11:00 +28°C° 0 mm 2 mps 746 mmHg 47%
12:00 +29°C° 0 mm 2 mps 745 mmHg 45%
13:00 +29°C° 0 mm 2 mps 745 mmHg 43%
14:00 +30°C° 0 mm 2 mps 745 mmHg 41%
15:00 +29°C° 0 mm 2 mps 745 mmHg 44%
16:00 +29°C° 0 mm 2 mps 745 mmHg 47%
17:00 +29°C° 0 mm 2 mps 744 mmHg 49%
18:00 +27°C° 0 mm 2 mps 744 mmHg 60%
19:00 +25°C° 0 mm 2 mps 744 mmHg 70%
20:00 +23°C° 0 mm 2 mps 744 mmHg 81%
21:00 +21°C° 0 mm 2 mps 744 mmHg 83%
22:00 +21°C° 0 mm 1 mps 744 mmHg 85%
23:00 +20°C° 0 mm 1 mps 745 mmHg 87%
Show more